,,,PA_Meas_PMT16A,,PR_Meas_QMR101_102,,RH_Meas_QMH101,,SR_Meas_QMS101,,TA_Meas_QMH101,,GenWind,,GenWind,
date,time,status,PA,status,PR,status,RH,status,SR,status,TA,status,DirAvg,status,SpdAvg,
2011-07-02, 00:00:04,VALID,1000.69,VALID,0,VALID,91.1663,VALID,0,VALID,22.8215,VALID,106,VALID,0.103516,
2011-07-02, 00:01:04,VALID,1000.67,VALID,0,VALID,91.1663,VALID,0.112286,VALID,22.8232,VALID,106,VALID,0,
2011-07-02, 00:02:04,VALID,1000.7,VALID,0,VALID,91.1663,VALID,0.112286,VALID,22.763,VALID,106,VALID,0,
2011-07-02, 00:03:04,VALID,1000.63,VALID,0,VALID,91.2503,VALID,0,VALID,22.7452,VALID,106,VALID,0,
2011-07-02, 00:04:04,VALID,1000.64,VALID,0,VALID,91.4105,VALID,0,VALID,22.7452,VALID,106,VALID,0.294531,
2011-07-02, 00:05:04,VALID,1000.64,VALID,0,VALID,91.5631,VALID,0,VALID,22.7257,VALID,106,VALID,0.393359,
2011-07-02, 00:06:04,VALID,1000.64,VALID,0,VALID,91.6928,VALID,0.112286,VALID,22.7257,VALID,106,VALID,0.616797,
2011-07-02, 00:07:04,VALID,1000.65,VALID,0,VALID,91.8148,VALID,0,VALID,22.7452,VALID,106,VALID,0.652344,
2011-07-02, 00:08:04,VALID,1000.67,VALID,0,VALID,91.9751,VALID,0,VALID,22.8037,VALID,106,VALID,0.989453,
2011-07-02, 00:09:04,VALID,1000.65,VALID,0,VALID,91.998,VALID,0,VALID,22.8215,VALID,106,VALID,0.686719,
2011-07-02, 00:10:04,VALID,1000.69,VALID,0,VALID,91.9903,VALID,0.112286,VALID,22.8623,VALID,106,VALID,0.623047,
2011-07-02, 00:11:04,VALID,1000.65,VALID,0,VALID,91.9751,VALID,0.112286,VALID,22.8818,VALID,106,VALID,0.599609,
2011-07-02, 00:12:04,VALID,1000.65,VALID,0,VALID,91.9293,VALID,0.112286,VALID,22.88,VALID,106,VALID,0.462891,
2011-07-02, 00:13:04,VALID,1000.66,VALID,0,VALID,91.6851,VALID,0.112286,VALID,22.8427,VALID,106,VALID,0.255078,
2011-07-02, 00:14:04,VALID,1000.66,VALID,0,VALID,91.502,VALID,0,VALID,22.7825,VALID,106,VALID,0.264453,
2011-07-02, 00:15:04,VALID,1000.65,VALID,0,VALID,91.4563,VALID,0,VALID,22.7842,VALID,106,VALID,0.217578,
2011-07-02, 00:16:04,VALID,1000.61,VALID,0,VALID,91.3266,VALID,0,VALID,22.7062,VALID,106,VALID,0.366016,
2011-07-02, 00:17:04,VALID,1000.65,VALID,0,VALID,91.2045,VALID,0,VALID,22.6494,VALID,106,VALID,0.440625,
2011-07-02, 00:18:04,VALID,1000.64,VALID,0,VALID,91.3952,VALID,0,VALID,22.6299,VALID,106,VALID,0.509766,
2011-07-02, 00:19:04,VALID,1000.65,VALID,0,VALID,91.647,VALID,0,VALID,22.6087,VALID,106,VALID,0.508984,
2011-07-02, 00:20:04,VALID,1000.64,VALID,0,VALID,91.8377,VALID,0,VALID,22.6282,VALID,106,VALID,0.434766,
2011-07-02, 00:21:04,VALID,1000.64,VALID,0,VALID,91.792,VALID,0,VALID,22.5909,VALID,106,VALID,0.535937,
2011-07-02, 00:22:04,VALID,1000.61,VALID,0,VALID,91.8683,VALID,0,VALID,22.5306,VALID,106,VALID,0.576172,
2011-07-02, 00:23:04,VALID,1000.6,VALID,0,VALID,92.0056,VALID,0,VALID,22.5714,VALID,106,VALID,0.447266,
2011-07-02, 00:24:04,VALID,1000.63,VALID,0,VALID,92.0971,VALID,0,VALID,22.5519,VALID,106,VALID,0.431641,
2011-07-02, 00:25:04,VALID,1000.57,VALID,0,VALID,92.1963,VALID,0,VALID,22.5714,VALID,106,VALID,0.467187,
2011-07-02, 00:26:04,VALID,1000.57,VALID,0,VALID,92.204,VALID,0,VALID,22.4916,VALID,106,VALID,0.616016,
2011-07-02, 00:27:04,VALID,1000.57,VALID,0,VALID,92.2726,VALID,0,VALID,22.5128,VALID,71,VALID,0.688672,
2011-07-02, 00:28:04,VALID,1000.54,VALID,0,VALID,92.3718,VALID,0,VALID,22.5111,VALID,70,VALID,0.666797,
2011-07-02, 00:29:04,VALID,1000.52,VALID,0,VALID,92.4481,VALID,0,VALID,22.5306,VALID,66,VALID,0.692969,
2011-07-02, 00:30:04,VALID,1000.52,VALID,0,VALID,92.532,VALID,0,VALID,22.5714,VALID,66,VALID,0.732813,
2011-07-02, 00:31:04,VALID,1000.51,VALID,0,VALID,92.5549,VALID,0.112286,VALID,22.5679,VALID,66,VALID,0.666797,
2011-07-02, 00:32:04,VALID,1000.49,VALID,0,VALID,92.6007,VALID,0,VALID,22.5874,VALID,66,VALID,0.569531,
2011-07-02, 00:33:04,VALID,1000.48,VALID,0,VALID,92.6388,VALID,0,VALID,22.6282,VALID,66,VALID,0.536719,
2011-07-02, 00:34:04,VALID,1000.46,VALID,0,VALID,92.6617,VALID,0,VALID,22.6494,VALID,66,VALID,0.553516,
2011-07-02, 00:35:04,VALID,1000.45,VALID,0,VALID,92.6083,VALID,0,VALID,22.6299,VALID,66,VALID,0.578516,
2011-07-02, 00:36:04,VALID,1000.43,VALID,0,VALID,92.532,VALID,0,VALID,22.5714,VALID,66,VALID,0.555469,
2011-07-02, 00:37:04,VALID,1000.39,VALID,0,VALID,92.4328,VALID,0,VALID,22.5111,VALID,66,VALID,0.796484,
2011-07-02, 00:38:04,VALID,1000.39,VALID,0,VALID,92.326,VALID,0,VALID,22.4331,VALID,66,VALID,0.746094,
2011-07-02, 00:39:04,VALID,1000.39,VALID,0,VALID,92.1811,VALID,0,VALID,22.3551,VALID,66,VALID,0.719141,
2011-07-02, 00:40:04,VALID,1000.38,VALID,0,VALID,92.059,VALID,0,VALID,22.2983,VALID,66,VALID,0.605469,
2011-07-02, 00:41:04,VALID,1000.41,VALID,0,VALID,92.0819,VALID,0,VALID,22.2983,VALID,66,VALID,0.574609,
2011-07-02, 00:42:04,VALID,1000.37,VALID,0,VALID,92.12,VALID,0,VALID,22.2381,VALID,66,VALID,0.355859,
2011-07-02, 00:43:04,VALID,1000.38,VALID,0,VALID,92.1353,VALID,0,VALID,22.2186,VALID,66,VALID,0.151953,
2011-07-02, 00:44:04,VALID,1000.36,VALID,0,VALID,92.2345,VALID,0,VALID,22.2397,VALID,66,VALID,0.288281,
2011-07-02, 00:45:04,VALID,1000.36,VALID,0,VALID,92.2955,VALID,0,VALID,22.2397,VALID,66,VALID,0.291016,
2011-07-02, 00:46:04,VALID,1000.34,VALID,0,VALID,92.3794,VALID,0,VALID,22.2592,VALID,66,VALID,0.236719,
2011-07-02, 00:47:04,VALID,1000.34,VALID,0,VALID,92.4557,VALID,0,VALID,22.2592,VALID,66,VALID,0.0214844,
2011-07-02, 00:48:04,VALID,1000.33,VALID,0,VALID,92.4481,VALID,0,VALID,22.2397,VALID,66,VALID,0.307031,
2011-07-02, 00:49:04,VALID,1000.27,VALID,0,VALID,92.5549,VALID,0,VALID,22.2788,VALID,66,VALID,0.260938,
2011-07-02, 00:50:04,VALID,1000.27,VALID,0,VALID,92.6236,VALID,0,VALID,22.2966,VALID,66,VALID,0.242578,
2011-07-02, 00:51:04,VALID,1000.26,VALID,0,VALID,92.7075,VALID,0,VALID,22.3568,VALID,92,VALID,0.687109,
2011-07-02, 00:52:04,VALID,1000.23,VALID,0,VALID,92.7762,VALID,0,VALID,22.4153,VALID,102,VALID,0.480859,
2011-07-02, 00:53:04,VALID,1000.22,VALID,0,VALID,92.8525,VALID,0,VALID,22.4738,VALID,102,VALID,0.791406,
2011-07-02, 00:54:04,VALID,1000.21,VALID,0,VALID,92.8754,VALID,0,VALID,22.5128,VALID,102,VALID,0.842578,
2011-07-02, 00:55:04,VALID,1000.23,VALID,0,VALID,92.883,VALID,0,VALID,22.5306,VALID,102,VALID,0.435547,
2011-07-02, 00:56:04,VALID,1000.25,VALID,0,VALID,92.9059,VALID,0,VALID,22.5714,VALID,102,VALID,0.583203,
2011-07-02, 00:57:04,VALID,1000.26,VALID,0,VALID,92.8372,VALID,0,VALID,22.5519,VALID,102,VALID,0.654297,
2011-07-02, 00:58:04,VALID,1000.23,VALID,0,VALID,92.8296,VALID,0,VALID,22.5519,VALID,102,VALID,0.624609,
2011-07-02, 00:59:04,VALID,1000.19,VALID,0,VALID,92.7685,VALID,0,VALID,22.5909,VALID,102,VALID,0.878516,
2011-07-02, 01:00:04,VALID,1000.18,VALID,0,VALID,92.7151,VALID,0,VALID,22.5696,VALID,102,VALID,0.917578,
2011-07-02, 01:01:04,VALID,1000.18,VALID,0,VALID,92.6312,VALID,0,VALID,22.5892,VALID,102,VALID,0.954687,
2011-07-02, 01:02:04,VALID,1000.18,VALID,0,VALID,92.5549,VALID,0.112286,VALID,22.6069,VALID,102,VALID,0.902344,
2011-07-02, 01:03:04,VALID,1000.14,VALID,0,VALID,92.4634,VALID,0,VALID,22.6282,VALID,102,VALID,0.6875,
2011-07-02, 01:04:04,VALID,1000.13,VALID,0,VALID,92.4328,VALID,0,VALID,22.6867,VALID,102,VALID,0.717578,
2011-07-02, 01:05:04,VALID,1000.13,VALID,0,VALID,92.3108,VALID,0,VALID,22.6672,VALID,102,VALID,0.548437,
2011-07-02, 01:06:04,VALID,1000.11,VALID,0,VALID,92.2116,VALID,0,VALID,22.6884,VALID,102,VALID,0.549219,
2011-07-02, 01:07:04,VALID,1000.13,VALID,0,VALID,91.9674,VALID,0,VALID,22.5892,VALID,102,VALID,0.627344,
2011-07-02, 01:08:04,VALID,1000.07,VALID,0,VALID,91.6928,VALID,0,VALID,22.5111,VALID,27,VALID,0.939844,
2011-07-02, 01:09:04,VALID,1000.08,VALID,0,VALID,91.6241,VALID,0,VALID,22.4721,VALID,26,VALID,0.964453,
2011-07-02, 01:10:04,VALID,1000.05,VALID,0,VALID,91.6623,VALID,0,VALID,22.4721,VALID,26,VALID,1.06875,
2011-07-02, 01:11:04,VALID,1000.03,VALID,0,VALID,91.7538,VALID,0,VALID,22.4526,VALID,26,VALID,1.03242,
2011-07-02, 01:12:04,VALID,1000.01,VALID,0,VALID,91.853,VALID,0,VALID,22.4314,VALID,26,VALID,0.969531,
2011-07-02, 01:13:04,VALID,1000.05,VALID,0,VALID,91.9369,VALID,0,VALID,22.4526,VALID,26,VALID,0.791406,
2011-07-02, 01:14:04,VALID,1000.05,VALID,0,VALID,91.9064,VALID,0,VALID,22.4331,VALID,26,VALID,0.844141,
2011-07-02, 01:15:04,VALID,1000.07,VALID,0,VALID,91.8225,VALID,0,VALID,22.3551,VALID,26,VALID,0.821094,
2011-07-02, 01:16:04,VALID,1000.08,VALID,0,VALID,91.7691,VALID,0,VALID,22.3161,VALID,26,VALID,0.582031,
2011-07-02, 01:17:04,VALID,1000.08,VALID,0,VALID,91.6851,VALID,0.112286,VALID,22.2576,VALID,26,VALID,0.440234,
2011-07-02, 01:18:04,VALID,1000.09,VALID,0,VALID,91.6241,VALID,0,VALID,22.2186,VALID,26,VALID,0.377344,
2011-07-02, 01:19:04,VALID,1000.07,VALID,0,VALID,91.6317,VALID,0,VALID,22.1795,VALID,26,VALID,0.387109,
2011-07-02, 01:20:04,VALID,1000.08,VALID,0,VALID,91.7233,VALID,0,VALID,22.16,VALID,26,VALID,0.426953,
2011-07-02, 01:21:04,VALID,1000.05,VALID,0,VALID,91.8454,VALID,0,VALID,22.1405,VALID,26,VALID,0.595703,
2011-07-02, 01:22:04,VALID,1000.07,VALID,0,VALID,92.0514,VALID,0.112286,VALID,22.199,VALID,26,VALID,0.777344,
2011-07-02, 01:23:04,VALID,1000.09,VALID,0,VALID,92.204,VALID,0,VALID,22.2186,VALID,26,VALID,0.911328,
2011-07-02, 01:24:04,VALID,1000.1,VALID,0,VALID,92.3108,VALID,0,VALID,22.2381,VALID,26,VALID,0.960547,
2011-07-02, 01:25:04,VALID,1000.11,VALID,0,VALID,92.3489,VALID,0,VALID,22.2576,VALID,26,VALID,0.881641,
2011-07-02, 01:26:04,VALID,1000.1,VALID,0,VALID,92.3718,VALID,0,VALID,22.2576,VALID,26,VALID,0.846484,
2011-07-02, 01:27:04,VALID,1000.12,VALID,0,VALID,92.3489,VALID,0.112286,VALID,22.2186,VALID,26,VALID,0.846094,
2011-07-02, 01:28:04,VALID,1000.12,VALID,0,VALID,92.2879,VALID,0,VALID,22.199,VALID,26,VALID,0.819922,
2011-07-02, 01:29:04,VALID,1000.1,VALID,0,VALID,92.2726,VALID,0,VALID,22.1405,VALID,26,VALID,0.787109,
2011-07-02, 01:30:04,VALID,1000.1,VALID,0,VALID,92.2803,VALID,0,VALID,22.121,VALID,26,VALID,0.742578,
2011-07-02, 01:31:04,VALID,1000.08,VALID,0,VALID,92.2955,VALID,0,VALID,22.1227,VALID,26,VALID,0.649219,
2011-07-02, 01:32:04,VALID,1000.07,VALID,0,VALID,92.3337,VALID,0,VALID,22.1227,VALID,26,VALID,0.594922,
2011-07-02, 01:33:04,VALID,1000.08,VALID,0,VALID,92.3794,VALID,0,VALID,22.1032,VALID,26,VALID,0.407031,
2011-07-02, 01:34:04,VALID,1000.07,VALID,0,VALID,92.4252,VALID,0,VALID,22.1032,VALID,26,VALID,0.00195313,
2011-07-02, 01:35:04,VALID,1000.07,VALID,0,VALID,92.4252,VALID,0,VALID,22.0642,VALID,26,VALID,0,
2011-07-02, 01:36:04,VALID,1000.08,VALID,0,VALID,92.3947,VALID,0,VALID,22.0252,VALID,26,VALID,0,
2011-07-02, 01:37:04,VALID,1000.07,VALID,0,VALID,92.3871,VALID,0,VALID,22.0252,VALID,26,VALID,0,
2011-07-02, 01:38:04,VALID,1000.08,VALID,0,VALID,92.4405,VALID,0,VALID,22.0252,VALID,26,VALID,0,
2011-07-02, 01:39:04,VALID,1000.09,VALID,0,VALID,92.5168,VALID,0,VALID,22.0642,VALID,26,VALID,0,
2011-07-02, 01:40:04,VALID,1000.08,VALID,0,VALID,92.5931,VALID,0,VALID,22.0837,VALID,26,VALID,0,
2011-07-02, 01:41:04,VALID,1000.07,VALID,0,VALID,92.6617,VALID,0,VALID,22.1015,VALID,26,VALID,0,
2011-07-02, 01:42:04,VALID,1000.09,VALID,0,VALID,92.738,VALID,0,VALID,22.1422,VALID,26,VALID,0,
2011-07-02, 01:43:04,VALID,1000.08,VALID,0,VALID,92.7838,VALID,0,VALID,22.1617,VALID,26,VALID,0,
2011-07-02, 01:44:04,VALID,1000.07,VALID,0,VALID,92.7991,VALID,0,VALID,22.1617,VALID,26,VALID,0,
2011-07-02, 01:45:04,VALID,1000.09,VALID,0,VALID,92.7991,VALID,0,VALID,22.1617,VALID,26,VALID,0,
2011-07-02, 01:46:04,VALID,1000.05,VALID,0,VALID,92.8448,VALID,0,VALID,22.16,VALID,26,VALID,0,
2011-07-02, 01:47:04,VALID,1000.06,VALID,0,VALID,92.8754,VALID,0,VALID,22.1795,VALID,26,VALID,0,
2011-07-02, 01:48:04,VALID,1000.04,VALID,0,VALID,92.9135,VALID,0,VALID,22.199,VALID,26,VALID,0,
2011-07-02, 01:49:04,VALID,999.993,VALID,0,VALID,92.8983,VALID,0.112286,VALID,22.2381,VALID,26,VALID,0.180078,
2011-07-02, 01:50:04,VALID,999.962,VALID,0,VALID,92.9517,VALID,0.112286,VALID,22.2576,VALID,26,VALID,0.20625,
2011-07-02, 01:51:04,VALID,999.953,VALID,0,VALID,92.944,VALID,0,VALID,22.2381,VALID,26,VALID,0,
2011-07-02, 01:52:04,VALID,999.919,VALID,0,VALID,92.9288,VALID,0,VALID,22.2186,VALID,26,VALID,0,
2011-07-02, 01:53:04,VALID,999.893,VALID,0,VALID,92.9211,VALID,0,VALID,22.2576,VALID,149,VALID,0.706641,
2011-07-02, 01:54:04,VALID,999.926,VALID,0,VALID,92.9059,VALID,0,VALID,22.2576,VALID,149,VALID,0.766406,
2011-07-02, 01:55:04,VALID,999.934,VALID,0,VALID,92.8983,VALID,0.112286,VALID,22.2966,VALID,149,VALID,0.966406,
2011-07-02, 01:56:05,VALID,999.955,VALID,0,VALID,92.8143,VALID,0.112286,VALID,22.3144,VALID,149,VALID,0.59375,
2011-07-02, 01:57:04,VALID,999.956,VALID,0,VALID,92.6923,VALID,0,VALID,22.3746,VALID,172,VALID,1.10703,
2011-07-02, 01:58:05,VALID,999.962,VALID,0,VALID,92.5244,VALID,0,VALID,22.4721,VALID,165,VALID,1.16133,
2011-07-02, 01:59:05,VALID,999.944,VALID,0,VALID,92.2421,VALID,0,VALID,22.5696,VALID,165,VALID,0.999219,
2011-07-02, 02:00:05,VALID,999.913,VALID,0,VALID,91.7233,VALID,0.112286,VALID,22.646,VALID,165,VALID,0.699219,
2011-07-02, 02:01:05,VALID,999.913,VALID,0,VALID,90.9298,VALID,0,VALID,22.7274,VALID,165,VALID,0.395312,
2011-07-02, 02:02:05,VALID,999.923,VALID,0,VALID,90.1821,VALID,0,VALID,22.7274,VALID,165,VALID,0.681641,
2011-07-02, 02:03:05,VALID,999.887,VALID,0,VALID,89.7243,VALID,0,VALID,22.786,VALID,165,VALID,0.65,
2011-07-02, 02:04:05,VALID,999.879,VALID,0,VALID,89.3505,VALID,0,VALID,22.8055,VALID,165,VALID,0.153906,
2011-07-02, 02:05:05,VALID,999.863,VALID,0,VALID,88.9919,VALID,0,VALID,22.825,VALID,165,VALID,0.355469,
2011-07-02, 02:06:05,VALID,999.851,VALID,0,VALID,88.8469,VALID,0,VALID,22.8055,VALID,165,VALID,0.323047,
2011-07-02, 02:07:05,VALID,999.833,VALID,0,VALID,88.7096,VALID,0,VALID,22.8055,VALID,165,VALID,0.353906,
2011-07-02, 02:08:05,VALID,999.87,VALID,0,VALID,88.5112,VALID,0,VALID,22.7664,VALID,165,VALID,0.549609,
2011-07-02, 02:09:05,VALID,999.825,VALID,0,VALID,88.3663,VALID,0,VALID,22.7079,VALID,165,VALID,0.575,
2011-07-02, 02:10:05,VALID,999.821,VALID,0,VALID,88.6638,VALID,0,VALID,22.7079,VALID,165,VALID,0.512109,
2011-07-02, 02:11:05,VALID,999.78,VALID,0,VALID,88.702,VALID,0,VALID,22.6884,VALID,165,VALID,0.812891,
2011-07-02, 02:12:05,VALID,999.81,VALID,0,VALID,88.8469,VALID,0,VALID,22.7274,VALID,165,VALID,0.684375,
2011-07-02, 02:13:05,VALID,999.802,VALID,0,VALID,88.6257,VALID,0,VALID,22.7469,VALID,165,VALID,0.476563,
2011-07-02, 02:14:05,VALID,999.794,VALID,0,VALID,88.6333,VALID,0,VALID,22.7257,VALID,165,VALID,0.519531,
2011-07-02, 02:15:05,VALID,999.782,VALID,0,VALID,88.5723,VALID,0,VALID,22.7452,VALID,165,VALID,0.684375,
2011-07-02, 02:16:05,VALID,999.769,VALID,0,VALID,88.557,VALID,0,VALID,22.786,VALID,165,VALID,0.630078,
2011-07-02, 02:17:05,VALID,999.75,VALID,0,VALID,88.4883,VALID,0,VALID,22.8055,VALID,165,VALID,0.815234,
2011-07-02, 02:18:05,VALID,999.751,VALID,0,VALID,88.3205,VALID,0,VALID,22.786,VALID,165,VALID,0.726953,
2011-07-02, 02:19:05,VALID,999.739,VALID,0,VALID,88.412,VALID,0,VALID,22.8055,VALID,165,VALID,0.905859,
2011-07-02, 02:20:05,VALID,999.728,VALID,0,VALID,88.3663,VALID,0,VALID,22.786,VALID,165,VALID,0.942187,
2011-07-02, 02:21:05,VALID,999.749,VALID,0,VALID,88.3129,VALID,0,VALID,22.7647,VALID,165,VALID,0.829687,
2011-07-02, 02:22:05,VALID,999.746,VALID,0,VALID,88.3586,VALID,0,VALID,22.7664,VALID,165,VALID,0.745313,
2011-07-02, 02:23:05,VALID,999.732,VALID,0,VALID,88.6333,VALID,0,VALID,22.7469,VALID,165,VALID,0.741797,
2011-07-02, 02:24:05,VALID,999.745,VALID,0,VALID,88.7477,VALID,0,VALID,22.7469,VALID,165,VALID,0.808203,
2011-07-02, 02:25:05,VALID,999.741,VALID,0,VALID,88.7401,VALID,0,VALID,22.7274,VALID,165,VALID,0.808203,
2011-07-02, 02:26:05,VALID,999.721,VALID,0,VALID,88.6333,VALID,0,VALID,22.6689,VALID,165,VALID,0.773438,
2011-07-02, 02:27:05,VALID,999.697,VALID,0,VALID,88.3968,VALID,0,VALID,22.5714,VALID,165,VALID,0.785156,
2011-07-02, 02:28:05,VALID,999.679,VALID,0,VALID,88.5723,VALID,0,VALID,22.4738,VALID,165,VALID,0.650781,
2011-07-02, 02:29:05,VALID,999.671,VALID,0,VALID,88.7477,VALID,0,VALID,22.3568,VALID,165,VALID,0.443359,
2011-07-02, 02:30:05,VALID,999.679,VALID,0,VALID,89.1903,VALID,0,VALID,22.2788,VALID,165,VALID,0.501953,
2011-07-02, 02:31:05,VALID,999.641,VALID,0,VALID,89.7014,VALID,0,VALID,22.2186,VALID,165,VALID,0.308203,
2011-07-02, 02:32:05,VALID,999.676,VALID,0,VALID,90.0524,VALID,0.112286,VALID,22.1795,VALID,165,VALID,0.330469,
2011-07-02, 02:33:05,VALID,999.67,VALID,0,VALID,90.3118,VALID,0,VALID,22.1405,VALID,165,VALID,0.333594,
2011-07-02, 02:34:05,VALID,999.655,VALID,0,VALID,90.617,VALID,0.112286,VALID,22.121,VALID,165,VALID,0.392969,
2011-07-02, 02:35:05,VALID,999.671,VALID,0,VALID,90.9298,VALID,0,VALID,22.1015,VALID,165,VALID,0.444141,
2011-07-02, 02:36:05,VALID,999.692,VALID,0,VALID,91.1968,VALID,0.112286,VALID,22.1015,VALID,165,VALID,0.435156,
2011-07-02, 02:37:05,VALID,999.681,VALID,0,VALID,91.441,VALID,0,VALID,22.1422,VALID,165,VALID,0.362891,
2011-07-02, 02:38:05,VALID,999.687,VALID,0,VALID,91.6012,VALID,0,VALID,22.121,VALID,165,VALID,0.222266,
2011-07-02, 02:39:05,VALID,999.707,VALID,0,VALID,91.7157,VALID,0,VALID,22.1194,VALID,165,VALID,0.262109,
2011-07-02, 02:40:05,VALID,999.736,VALID,0,VALID,91.7843,VALID,0,VALID,22.1405,VALID,165,VALID,0.142578,
2011-07-02, 02:41:05,VALID,999.736,VALID,0,VALID,91.8454,VALID,0.112286,VALID,22.1405,VALID,165,VALID,0.196875,
2011-07-02, 02:42:05,VALID,999.73,VALID,0,VALID,91.8606,VALID,0,VALID,22.1405,VALID,165,VALID,0.09375,
2011-07-02, 02:43:05,VALID,999.749,VALID,0,VALID,91.8683,VALID,0,VALID,22.121,VALID,165,VALID,0,
2011-07-02, 02:44:05,VALID,999.767,VALID,0,VALID,91.8911,VALID,0,VALID,22.121,VALID,165,VALID,0.0179687,
2011-07-02, 02:45:05,VALID,999.757,VALID,0,VALID,91.8911,VALID,0,VALID,22.082,VALID,165,VALID,0.137891,
2011-07-02, 02:46:05,VALID,999.777,VALID,0,VALID,91.9293,VALID,0,VALID,22.082,VALID,165,VALID,0.312891,
2011-07-02, 02:47:05,VALID,999.766,VALID,0,VALID,91.9827,VALID,0,VALID,22.1227,VALID,165,VALID,0.4125,
2011-07-02, 02:48:05,VALID,999.804,VALID,0,VALID,91.9903,VALID,0.112286,VALID,22.082,VALID,165,VALID,0.507813,
2011-07-02, 02:49:05,VALID,999.803,VALID,0,VALID,92.0285,VALID,0,VALID,22.1015,VALID,165,VALID,0.574609,
2011-07-02, 02:50:05,VALID,999.8,VALID,0,VALID,92.0437,VALID,0,VALID,22.1015,VALID,165,VALID,0.657031,
2011-07-02, 02:51:05,VALID,999.788,VALID,0,VALID,92.0514,VALID,0.112286,VALID,22.121,VALID,165,VALID,0.721484,
2011-07-02, 02:52:05,VALID,999.768,VALID,0,VALID,92.0743,VALID,0,VALID,22.121,VALID,165,VALID,0.705469,
2011-07-02, 02:53:05,VALID,999.789,VALID,0,VALID,92.0819,VALID,0,VALID,22.1015,VALID,165,VALID,0.631641,
2011-07-02, 02:54:05,VALID,999.796,VALID,0,VALID,92.0971,VALID,0,VALID,22.082,VALID,165,VALID,0.462891,
2011-07-02, 02:55:05,VALID,999.796,VALID,0,VALID,92.1124,VALID,0,VALID,22.082,VALID,165,VALID,0.361328,
2011-07-02, 02:56:05,VALID,999.773,VALID,0,VALID,92.1582,VALID,0,VALID,22.082,VALID,165,VALID,0.208594,
2011-07-02, 02:57:05,VALID,999.758,VALID,0,VALID,92.1582,VALID,0,VALID,22.0625,VALID,165,VALID,0.106641,
2011-07-02, 02:58:05,VALID,999.762,VALID,0,VALID,92.204,VALID,0.112286,VALID,22.043,VALID,165,VALID,0,
2011-07-02, 02:59:05,VALID,999.781,VALID,0,VALID,92.2345,VALID,0,VALID,22.004,VALID,165,VALID,0,
2011-07-02, 03:00:05,VALID,999.727,VALID,0,VALID,92.2421,VALID,0,VALID,22.004,VALID,165,VALID,0,
2011-07-02, 03:01:05,VALID,999.714,VALID,0,VALID,92.2955,VALID,0,VALID,21.965,VALID,165,VALID,0.325391,
2011-07-02, 03:02:05,VALID,999.712,VALID,0,VALID,92.326,VALID,0,VALID,21.965,VALID,165,VALID,0.15,
2011-07-02, 03:03:05,VALID,999.714,VALID,0,VALID,92.3718,VALID,0,VALID,21.965,VALID,165,VALID,0.39375,
2011-07-02, 03:04:05,VALID,999.696,VALID,0,VALID,92.4023,VALID,0,VALID,21.9455,VALID,165,VALID,0.382813,
2011-07-02, 03:05:05,VALID,999.688,VALID,0,VALID,92.471,VALID,0,VALID,21.9048,VALID,165,VALID,0.441406,
2011-07-02, 03:06:05,VALID,999.67,VALID,0,VALID,92.5015,VALID,0,VALID,21.926,VALID,165,VALID,0.453516,
2011-07-02, 03:07:05,VALID,999.662,VALID,0,VALID,92.5626,VALID,0,VALID,21.9065,VALID,165,VALID,0.6625,
2011-07-02, 03:08:05,VALID,999.648,VALID,0,VALID,92.6541,VALID,0,VALID,21.9455,VALID,165,VALID,0.478906,
2011-07-02, 03:09:05,VALID,999.714,VALID,0,VALID,92.738,VALID,0,VALID,21.9633,VALID,132,VALID,0.484375,
2011-07-02, 03:10:05,VALID,999.702,VALID,0,VALID,92.7685,VALID,0,VALID,21.965,VALID,132,VALID,0.444141,
2011-07-02, 03:11:05,VALID,999.715,VALID,0,VALID,92.738,VALID,0,VALID,21.9455,VALID,132,VALID,0.442578,
2011-07-02, 03:12:05,VALID,999.697,VALID,0,VALID,92.738,VALID,0,VALID,21.9243,VALID,132,VALID,0.334375,
2011-07-02, 03:13:05,VALID,999.745,VALID,0,VALID,92.7609,VALID,0,VALID,21.9438,VALID,132,VALID,0.226563,
2011-07-02, 03:14:05,VALID,999.765,VALID,0,VALID,92.738,VALID,0,VALID,21.9243,VALID,132,VALID,0.29375,
2011-07-02, 03:15:05,VALID,999.739,VALID,0,VALID,92.6999,VALID,0,VALID,21.9065,VALID,132,VALID,0.343359,
2011-07-02, 03:16:05,VALID,999.75,VALID,0,VALID,92.6846,VALID,0,VALID,21.8887,VALID,132,VALID,0.217187,
2011-07-02, 03:17:05,VALID,999.759,VALID,0,VALID,92.616,VALID,0,VALID,21.8692,VALID,132,VALID,0.321875,
2011-07-02, 03:18:05,VALID,999.766,VALID,0,VALID,92.6465,VALID,0,VALID,21.8692,VALID,132,VALID,0.367969,
2011-07-02, 03:19:05,VALID,999.774,VALID,0,VALID,92.6541,VALID,0,VALID,21.8887,VALID,132,VALID,0.320313,
2011-07-02, 03:20:05,VALID,999.751,VALID,0,VALID,92.6617,VALID,0,VALID,21.8692,VALID,132,VALID,0.162891,
2011-07-02, 03:21:05,VALID,999.781,VALID,0,VALID,92.6694,VALID,0,VALID,21.8692,VALID,132,VALID,0,
2011-07-02, 03:22:05,VALID,999.76,VALID,0,VALID,92.6312,VALID,0,VALID,21.8301,VALID,132,VALID,0,
2011-07-02, 03:23:05,VALID,999.742,VALID,0,VALID,92.6465,VALID,0,VALID,21.8301,VALID,132,VALID,0,
2011-07-02, 03:24:05,VALID,999.744,VALID,0,VALID,92.6541,VALID,0,VALID,21.8301,VALID,132,VALID,0.00703125,
2011-07-02, 03:25:05,VALID,999.703,VALID,0,VALID,92.6541,VALID,0,VALID,21.8106,VALID,132,VALID,0.208984,
2011-07-02, 03:26:05,VALID,999.723,VALID,0,VALID,92.6465,VALID,0,VALID,21.7911,VALID,132,VALID,0.252734,
2011-07-02, 03:27:05,VALID,999.732,VALID,0,VALID,92.6388,VALID,0,VALID,21.7521,VALID,132,VALID,0.288672,
2011-07-02, 03:28:05,VALID,999.705,VALID,0,VALID,92.6465,VALID,0,VALID,21.7326,VALID,132,VALID,0.339844,
2011-07-02, 03:29:05,VALID,999.715,VALID,0,VALID,92.6694,VALID,0,VALID,21.7326,VALID,132,VALID,0.309766,
2011-07-02, 03:30:05,VALID,999.751,VALID,0,VALID,92.6999,VALID,0,VALID,21.6936,VALID,132,VALID,0.0953125,
2011-07-02, 03:31:05,VALID,999.763,VALID,0,VALID,92.6999,VALID,0,VALID,21.6513,VALID,132,VALID,0,
2011-07-02, 03:32:05,VALID,999.769,VALID,0,VALID,92.7151,VALID,0,VALID,21.653,VALID,132,VALID,0,
2011-07-02, 03:33:05,VALID,999.762,VALID,0,VALID,92.7533,VALID,0,VALID,21.6725,VALID,132,VALID,0,
2011-07-02, 03:34:05,VALID,999.775,VALID,0,VALID,92.8143,VALID,0,VALID,21.692,VALID,132,VALID,0,
2011-07-02, 03:35:05,VALID,999.756,VALID,0,VALID,92.8906,VALID,0,VALID,21.7115,VALID,132,VALID,0,
2011-07-02, 03:36:05,VALID,999.77,VALID,0,VALID,92.9211,VALID,0,VALID,21.731,VALID,132,VALID,0,
2011-07-02, 03:37:05,VALID,999.761,VALID,0,VALID,92.9593,VALID,0,VALID,21.7505,VALID,132,VALID,0,
2011-07-02, 03:38:05,VALID,999.78,VALID,0,VALID,92.9822,VALID,0,VALID,21.77,VALID,132,VALID,0,
2011-07-02, 03:39:05,VALID,999.76,VALID,0,VALID,93.0127,VALID,0.112286,VALID,21.809,VALID,132,VALID,0,
2011-07-02, 03:40:05,VALID,999.763,VALID,0,VALID,93.0356,VALID,0,VALID,21.809,VALID,132,VALID,0,
2011-07-02, 03:41:05,VALID,999.772,VALID,0,VALID,93.0432,VALID,0,VALID,21.7878,VALID,132,VALID,0,
2011-07-02, 03:42:05,VALID,999.795,VALID,0,VALID,93.0432,VALID,0,VALID,21.8285,VALID,85,VALID,0.346094,
2011-07-02, 03:43:05,VALID,999.76,VALID,0,VALID,93.0203,VALID,0,VALID,21.8301,VALID,85,VALID,0,
2011-07-02, 03:44:05,VALID,999.781,VALID,0,VALID,92.9593,VALID,0,VALID,21.809,VALID,85,VALID,0,
2011-07-02, 03:45:05,VALID,999.785,VALID,0,VALID,92.9517,VALID,0,VALID,21.8285,VALID,85,VALID,0,
2011-07-02, 03:46:05,VALID,999.784,VALID,0,VALID,92.9288,VALID,0,VALID,21.8692,VALID,85,VALID,0,